Погода в Парге

Греция     39°17′12″N   20°24′00″E
темп.,
°C
ветер,
м/с
пор.,
м/с
влажн.,
%
обл.,
%
осадки,
мм/ч
давл.,
гПа
погр.,
м
19 сентября, вс
вс1900:00+23в228067 0.0 101530
03:00+22вюв22775 0.0 101547
06:00+22в33783 0.0 101551
09:00+24вюв346822 0.0 1015212
12:00+27ю335781 0.0 1016724
15:00+27ююз566092 0.1 1014714
18:00+26ю34675 0.0 1014525
21:00+23юв34850 0.0 101499
20 сентября, пн
пн2000:00+22вюв22880 0.0 101557
03:00+22в33780 0.0 101459
06:00+21в33790 0.0 101465
09:00+24в226911 0.0 1014165
12:00+26ююз33636 0.0 1015794
15:00+26ююз32670 0.0 1014514
18:00+25юз227492 0.0 1014401
21:00+22в118412 0.0 101512
21 сентября, вт
вт2100:00+22в228021 0.0 101636
03:00+21всв2277100 0.0 101636
06:00+21всв2275100 0.0 101639
09:00+23всв11635 0.0 1017129
12:00+26зюз3356100 0.0 1017723
15:00+25зсз346596 0.0 1018609
18:00+25зсз455953 0.0 1016506
21:00+22ссз45690 0.0 1017120
22 сентября, ср
ср2200:00+21с23705 0.0 1017133
03:00+20св2268100 0.0 101760
06:00+19св226623 0.0 101654
09:00+21св1253100 0.0 1015141
12:00+24з334943 0.0 1015802
15:00+25зсз77500 0.0 10131006
18:00+23сз810570 0.0 1012823
21:00+19сз6770100 0.0 1012384
23 сентября, чт
чт2300:00+19с337083 0.0 1012205
03:00+17ссв22685 0.0 1012113
06:00+16ссв32693 0.0 1012115
09:00+18всв22550 0.0 1013231
12:00+23зюз21370 0.0 10141169
15:00+21зюз64522 0.0 1014990
18:00+21зсз34480 0.0 1014877
21:00+19с23530 0.0 1015181